Regional Weather Roundup
Issued by NWS Sterling, VA

Home | Current Version | Previous Version | Graphics & Text | Print | Product List | Glossary On
Versions: 1 2 3 4 5 6 7 8 9 10 11 12 13 14 15 16 17 18 19 20 21 22 23 24 25 26 27 28 29 30 31 32 33 34 35 36 37 38 39 40 41 42 43 44 45 46 47 48 49 50
000
ASUS41 KLWX 261511
RWRLWX

REGIONAL WEATHER ROUNDUP
NATIONAL WEATHER SERVICE BALTIMORE MD/WASHINGTON DC
1100 AM EDT THU APR 26 2018

Note: "FAIR" indicates few or no clouds below 12,000 feet
with no significant weather and/or obstructions to visibility.
 TC=TEMPERATURE CELSIUS

 * =Non NWS site. Station does not report precipitation (e.g. rain,
    snow, etc.), thunder, or fog.

DCZ001-MDZ009-015-VAZ040>042-051-053>054-261600-
WASHINGTON METRO

CITY           SKY/WX    TMP DP  RH WIND       PRES   REMARKS
WASHINGTON NAT PTSUNNY   61  38  42 W13       29.88F
DULLES         FAIR      59  39  47 W14G20    29.89R
ANDREWS AFB    FAIR      58  38  47 W10       29.87S
FT BELVOIR     FAIR      61  36  39 NW9       29.88F
QUANTICO       PTSUNNY   62  39  42 N14       29.89F
COLLEGE PARK*  FAIR      58  38  47 W8G16     29.88S
LEESBURG*      FAIR      59  43  55 NW8       29.90S
MANASSAS*      FAIR      61  38  42 NW14G20   29.89F

$$

MDZ006>007-011-014-261600-
BALTIMORE METRO

CITY           SKY/WX    TMP DP  RH WIND       PRES   REMARKS
BWI AIRPORT    PTSUNNY   59  41  51 W14       29.86R
MD SCIENCE CTR   N/A     61  40  45 MISG      29.86R
MARTIN STATE   MOSUNNY   61  45  55 W12       29.87S
ANNAPOLIS      FAIR      61  40  45 VRB7      29.86S
FORT MEADE*    FAIR      61  41  48 W8        29.90R

$$

MDZ012-015-019>023-261600-
MARYLAND EASTERN SHORE

CITY           SKY/WX    TMP DP  RH WIND       PRES   REMARKS
OCEAN CITY     FAIR      60  44  55 NW10G17   29.85S
SALISBURY      FAIR      59  44  57 NW8       29.85S
BAY BRIDGE AP* FAIR      59  43  55 W8        29.87S
CAMBRIDGE*     SUNNY     57  41  54 NW13      29.87S
EASTON*        PTSUNNY   59  41  51 NW10G17   29.90S

$$

MDZ017>025-261600-
SOUTHERN MARYLAND

CITY           SKY/WX    TMP DP  RH WIND       PRES   REMARKS
PATUXENT RIVER PTSUNNY   62  41  46 NW14      29.87S
ST INIGOES     FAIR      61  40  45 VRB3      29.87S
LEONARDTOWN*   FAIR      59  37  44 NW8       29.88F

$$

MDZ003>005-261600-
NORTH CENTRAL MARYLAND

CITY           SKY/WX    TMP DP  RH WIND       PRES   REMARKS
FREDERICK*     SUNNY     55  36  47 NW13      29.92S
HAGERSTOWN APT FAIR      55  38  52 NW10      29.89S
WESTMINSTER*   FAIR      55  39  54 W13       29.87R

$$

MDZ501>502-261600-
WESTERN MARYLAND

CITY           SKY/WX    TMP DP  RH WIND       PRES   REMARKS
OAKLAND*       FAIR      41  34  75 W12       29.91R WCI  34
CUMBERLAND*    FAIR      59  34  38 W5        29.95F

$$

VAZ025>031-261600-
SHENANDOAH VALLEY

CITY           SKY/WX    TMP DP  RH WIND       PRES   REMARKS
WINCHESTER*    FAIR      55  36  47 NW13      29.91F
FRONT ROYAL*   FAIR      59  36  41 SW6       29.89S
LURAY*         FAIR      59  37  44 CALM      29.91S
NEW MARKET*    FAIR      57  37  47 S3        29.90S
STAUNTON*      FAIR      57  38  50 CALM      29.94R
WAYNESBORO*    FAIR      56  38  49 W7        29.92R

$$

WVZ021-048>050-054>055-261600-
EASTERN WEST VIRGINIA PANHANDLE

CITY           SKY/WX    TMP DP  RH WIND       PRES   REMARKS
MARTINSBURG    FAIR      57  35  43 W15G23    29.89S
PETERSBURG*    FAIR      56  39  52 N5        29.92S

$$

VAZ036>039-050-261600-
CENTRAL FOOTHILLS

CITY           SKY/WX    TMP DP  RH WIND       PRES   REMARKS
CHARLOTTESVILL FAIR      64  36  35 N9        29.89R
CULPEPER*      FAIR      62  35  37 N8        29.90S
ORANGE*        FAIR      61  37  41 N6        29.90R
GORDONSVILLE*  FAIR      61  38  41 NW5       29.90R
WARRENTON*     FAIR      62  36  36 W6        29.89S

$$

VAZ055>057-261600-
NORTH AND CENTRAL PIEDMONT

CITY           SKY/WX    TMP DP  RH WIND       PRES   REMARKS
FREDERICKSBRG* FAIR      62  39  43 N5G16     29.89S
STAFFORD*      FAIR      61  40  45 W10       29.93S

$$

NCZ024-NYZ072-PAZ021-071-VAZ022-071-261600-
OTHER REGIONAL OBSERVATIONS

CITY           SKY/WX    TMP DP  RH WIND       PRES   REMARKS
NEW YORK CITY  FAIR      59  41  51 W8G18     29.77R
PHILADELPHIA   FAIR      57  39  51 W9        29.82R
PITTSBURGH     FAIR      49  35  58 W5        29.94R
ROANOKE        FAIR      62  41  46 CALM      29.94R
RICHMOND       PTSUNNY   63  38  39 N9        29.90R
RALEIGH        PTSUNNY   64  52  64 E6        29.91R

$$

ANZ530>537-261600-
MARINE OBSERVATIONS

STATION/POSITION TIME  TEMP    WIND        PRES
                       AIR SEA DIR/SP/G
                 (UTC) (F)     (DEG/KT/KT) (MB)
THOMAS PT LIGHT  NOT AVBL
BALT KEY BRIDGE  1442   56     310/  9/ 11 1011.0R
COVE POINT       1442   56     360/  6/ 12 1012.2R
LEWISETTA        1442   57 56  330/  9/ 12 1012.0R
SOLOMONS ISLAND  1442   57 54  330/  9/ 14 1011.3R
PINEY POINT      1442          320/ 13/ 14   N/A

$$




USA.gov is the U.S. government's official web portal to all federal, state and local government web resources and services.